owner,sensor,date,latitude,longitude,vertical_datum,sea_water_temperature,qcFlag
Anadarko,ioos:station:wmo:42370:2,2022-09-01T00:13:00Z,27.3215,-90.5355,18.3,38.9,11133222
Anadarko,ioos:station:wmo:42370:2,2022-09-01T00:33:00Z,27.3215,-90.5355,18.3,39.0,11133222
Anadarko,ioos:station:wmo:42370:2,2022-09-01T00:53:00Z,27.3215,-90.5355,18.3,39.1,11133222
Anadarko,ioos:station:wmo:42370:2,2022-09-01T01:13:00Z,27.3215,-90.5355,18.3,39.1,11133222
Anadarko,ioos:station:wmo:42370:2,2022-09-01T01:33:00Z,27.3215,-90.5355,18.3,39.0,11133222
Anadarko,ioos:station:wmo:42370:2,2022-09-01T01:53:00Z,27.3215,-90.5355,18.3,39.1,11133222
Anadarko,ioos:station:wmo:42370:2,2022-09-01T02:13:00Z,27.3215,-90.5355,18.3,39.1,11133222
Anadarko,ioos:station:wmo:42370:2,2022-09-01T02:33:00Z,27.3215,-90.5355,18.3,39.1,11133222
Anadarko,ioos:station:wmo:42370:2,2022-09-01T02:53:00Z,27.3215,-90.5355,18.3,39.0,11133222
Anadarko,ioos:station:wmo:42370:2,2022-09-01T03:13:00Z,27.3215,-90.5355,18.3,39.0,11133222
Anadarko,ioos:station:wmo:42370:2,2022-09-01T03:33:00Z,27.3215,-90.5355,18.3,39.1,11133222
Anadarko,ioos:station:wmo:42370:2,2022-09-01T03:53:00Z,27.3215,-90.5355,18.3,39.0,11133222
Anadarko,ioos:station:wmo:42370:2,2022-09-01T04:13:00Z,27.3215,-90.5355,18.3,39.0,11133222
Anadarko,ioos:station:wmo:42370:2,2022-09-01T04:33:00Z,27.3215,-90.5355,18.3,39.0,11133222
Anadarko,ioos:station:wmo:42370:2,2022-09-01T04:53:00Z,27.3215,-90.5355,18.3,39.1,11133222
Anadarko,ioos:station:wmo:42370:2,2022-09-01T05:13:00Z,27.3215,-90.5355,18.3,39.0,11133222
Anadarko,ioos:station:wmo:42370:2,2022-09-01T05:33:00Z,27.3215,-90.5355,18.3,39.1,11133222
Anadarko,ioos:station:wmo:42370:2,2022-09-01T05:53:00Z,27.3215,-90.5355,18.3,39.0,11133222
Anadarko,ioos:station:wmo:42370:2,2022-09-01T06:13:00Z,27.3215,-90.5355,18.3,39.0,11133222
Anadarko,ioos:station:wmo:42370:2,2022-09-01T06:33:00Z,27.3215,-90.5355,18.3,39.1,11133222
Anadarko,ioos:station:wmo:42370:2,2022-09-01T06:53:00Z,27.3215,-90.5355,18.3,39.1,11133222
Anadarko,ioos:station:wmo:42370:2,2022-09-01T07:13:00Z,27.3215,-90.5355,18.3,39.1,11133222
Anadarko,ioos:station:wmo:42370:2,2022-09-01T07:33:00Z,27.3215,-90.5355,18.3,39.1,11133222
Anadarko,ioos:station:wmo:42370:2,2022-09-01T07:53:00Z,27.3215,-90.5355,18.3,39.1,11133222
Anadarko,ioos:station:wmo:42370:2,2022-09-01T08:13:00Z,27.3215,-90.5355,18.3,39.1,11133222
Anadarko,ioos:station:wmo:42370:2,2022-09-01T08:33:00Z,27.3215,-90.5355,18.3,39.1,11133222
Anadarko,ioos:station:wmo:42370:2,2022-09-01T08:53:00Z,27.3215,-90.5355,18.3,39.1,11133222
Anadarko,ioos:station:wmo:42370:2,2022-09-01T09:13:00Z,27.3215,-90.5355,18.3,39.1,11133222
Anadarko,ioos:station:wmo:42370:2,2022-09-01T09:33:00Z,27.3215,-90.5355,18.3,39.1,11133222
Anadarko,ioos:station:wmo:42370:2,2022-09-01T09:53:00Z,27.3215,-90.5355,18.3,39.2,11133222
Anadarko,ioos:station:wmo:42370:2,2022-09-01T10:13:00Z,27.3215,-90.5355,18.3,39.1,11133222
Anadarko,ioos:station:wmo:42370:2,2022-09-01T10:33:00Z,27.3215,-90.5355,18.3,39.2,11133222
Anadarko,ioos:station:wmo:42370:2,2022-09-01T10:53:00Z,27.3215,-90.5355,18.3,39.1,11133222
Anadarko,ioos:station:wmo:42370:2,2022-09-01T11:13:00Z,27.3215,-90.5355,18.3,39.1,11133222
Anadarko,ioos:station:wmo:42370:2,2022-09-01T11:33:00Z,27.3215,-90.5355,18.3,39.1,11133222
Anadarko,ioos:station:wmo:42370:2,2022-09-01T11:53:00Z,27.3215,-90.5355,18.3,39.1,11133222
Anadarko,ioos:station:wmo:42370:2,2022-09-01T12:13:00Z,27.3215,-90.5355,18.3,39.1,11133222
Anadarko,ioos:station:wmo:42370:2,2022-09-01T12:33:00Z,27.3215,-90.5355,18.3,39.1,11133222
Anadarko,ioos:station:wmo:42370:2,2022-09-01T12:53:00Z,27.3215,-90.5355,18.3,39.1,11133222
Anadarko,ioos:station:wmo:42370:2,2022-09-01T13:13:00Z,27.3215,-90.5355,18.3,39.1,11133222
Anadarko,ioos:station:wmo:42370:2,2022-09-01T13:33:00Z,27.3215,-90.5355,18.3,39.1,11133222
Anadarko,ioos:station:wmo:42370:2,2022-09-01T13:52:00Z,27.3215,-90.5355,18.3,39.1,11133222
Anadarko,ioos:station:wmo:42370:2,2022-09-01T14:58:00Z,27.3215,-90.5355,18.3,39.0,11133222
Anadarko,ioos:station:wmo:42370:2,2022-09-01T15:18:00Z,27.3215,-90.5355,18.3,39.0,11133222
Anadarko,ioos:station:wmo:42370:2,2022-09-01T15:38:00Z,27.3215,-90.5355,18.3,39.0,11133222
Anadarko,ioos:station:wmo:42370:2,2022-09-01T15:58:00Z,27.3215,-90.5355,18.3,38.9,11133222
Anadarko,ioos:station:wmo:42370:2,2022-09-01T18:29:00Z,27.3215,-90.5355,18.3,39.0,11133222
Anadarko,ioos:station:wmo:42370:2,2022-09-01T18:49:00Z,27.3215,-90.5355,18.3,38.9,11133222
Anadarko,ioos:station:wmo:42370:2,2022-09-01T19:09:00Z,27.3215,-90.5355,18.3,38.9,11133222
Anadarko,ioos:station:wmo:42370:2,2022-09-01T19:29:00Z,27.3215,-90.5355,18.3,38.9,11133222
Anadarko,ioos:station:wmo:42370:2,2022-09-01T23:55:00Z,27.3215,-90.5355,18.3,38.6,11133222
Anadarko,ioos:station:wmo:42370:2,2022-09-02T00:15:00Z,27.3215,-90.5355,18.3,38.5,11133222
Anadarko,ioos:station:wmo:42370:2,2022-09-02T00:35:00Z,27.3215,-90.5355,18.3,38.5,11133222
Anadarko,ioos:station:wmo:42370:2,2022-09-02T00:55:00Z,27.3215,-90.5355,18.3,38.8,11133222
Anadarko,ioos:station:wmo:42370:2,2022-09-02T01:15:00Z,27.3215,-90.5355,18.3,38.8,11133222
Anadarko,ioos:station:wmo:42370:2,2022-09-02T01:35:00Z,27.3215,-90.5355,18.3,38.7,11133222
Anadarko,ioos:station:wmo:42370:2,2022-09-02T01:55:00Z,27.3215,-90.5355,18.3,38.9,11133222
Anadarko,ioos:station:wmo:42370:2,2022-09-02T02:15:00Z,27.3215,-90.5355,18.3,38.9,11133222
Anadarko,ioos:station:wmo:42370:2,2022-09-02T02:35:00Z,27.3215,-90.5355,18.3,38.9,11133222
Anadarko,ioos:station:wmo:42370:2,2022-09-02T02:55:00Z,27.3215,-90.5355,18.3,38.9,11133222
Anadarko,ioos:station:wmo:42370:2,2022-09-02T03:15:00Z,27.3215,-90.5355,18.3,38.9,11133222
Anadarko,ioos:station:wmo:42370:2,2022-09-02T03:35:00Z,27.3215,-90.5355,18.3,38.9,11133222
Anadarko,ioos:station:wmo:42370:2,2022-09-02T03:55:00Z,27.3215,-90.5355,18.3,38.9,11133222
Anadarko,ioos:station:wmo:42370:2,2022-09-02T04:15:00Z,27.3215,-90.5355,18.3,38.9,11133222
Anadarko,ioos:station:wmo:42370:2,2022-09-02T04:35:00Z,27.3215,-90.5355,18.3,38.9,11133222
Anadarko,ioos:station:wmo:42370:2,2022-09-02T04:55:00Z,27.3215,-90.5355,18.3,38.9,11133222
Anadarko,ioos:station:wmo:42370:2,2022-09-02T05:15:00Z,27.3215,-90.5355,18.3,38.9,11133222
Anadarko,ioos:station:wmo:42370:2,2022-09-02T05:35:00Z,27.3215,-90.5355,18.3,38.9,11133222
Anadarko,ioos:station:wmo:42370:2,2022-09-02T05:55:00Z,27.3215,-90.5355,18.3,38.9,11133222
Anadarko,ioos:station:wmo:42370:2,2022-09-02T06:15:00Z,27.3215,-90.5355,18.3,38.9,11133222
Anadarko,ioos:station:wmo:42370:2,2022-09-02T06:35:00Z,27.3215,-90.5355,18.3,38.9,11133222
Anadarko,ioos:station:wmo:42370:2,2022-09-02T06:55:00Z,27.3215,-90.5355,18.3,38.9,11133222
Anadarko,ioos:station:wmo:42370:2,2022-09-02T07:15:00Z,27.3215,-90.5355,18.3,38.8,11133222
Anadarko,ioos:station:wmo:42370:2,2022-09-02T07:35:00Z,27.3215,-90.5355,18.3,38.7,11133222
Anadarko,ioos:station:wmo:42370:2,2022-09-02T07:55:00Z,27.3215,-90.5355,18.3,38.9,11133222
Anadarko,ioos:station:wmo:42370:2,2022-09-02T08:15:00Z,27.3215,-90.5355,18.3,38.8,11133222
Anadarko,ioos:station:wmo:42370:2,2022-09-02T08:35:00Z,27.3215,-90.5355,18.3,38.8,11133222
Anadarko,ioos:station:wmo:42370:2,2022-09-02T08:55:00Z,27.3215,-90.5355,18.3,38.8,11133222
Anadarko,ioos:station:wmo:42370:2,2022-09-02T09:15:00Z,27.3215,-90.5355,18.3,38.9,11133222
Anadarko,ioos:station:wmo:42370:2,2022-09-02T09:35:00Z,27.3215,-90.5355,18.3,38.8,11133222
Anadarko,ioos:station:wmo:42370:2,2022-09-02T09:55:00Z,27.3215,-90.5355,18.3,38.9,11133222
Anadarko,ioos:station:wmo:42370:2,2022-09-02T10:15:00Z,27.3215,-90.5355,18.3,38.8,11133222
Anadarko,ioos:station:wmo:42370:2,2022-09-02T10:35:00Z,27.3215,-90.5355,18.3,38.8,11133222
Anadarko,ioos:station:wmo:42370:2,2022-09-02T10:55:00Z,27.3215,-90.5355,18.3,38.8,11133222
Anadarko,ioos:station:wmo:42370:2,2022-09-02T11:15:00Z,27.3215,-90.5355,18.3,38.7,11133222
Anadarko,ioos:station:wmo:42370:2,2022-09-02T11:35:00Z,27.3215,-90.5355,18.3,38.9,11133222
Anadarko,ioos:station:wmo:42370:2,2022-09-02T11:55:00Z,27.3215,-90.5355,18.3,38.6,11133222
Anadarko,ioos:station:wmo:42370:2,2022-09-02T12:15:00Z,27.3215,-90.5355,18.3,38.7,11133222
Anadarko,ioos:station:wmo:42370:2,2022-09-02T12:35:00Z,27.3215,-90.5355,18.3,38.8,11133222
Anadarko,ioos:station:wmo:42370:2,2022-09-02T12:55:00Z,27.3215,-90.5355,18.3,38.7,11133222
Anadarko,ioos:station:wmo:42370:2,2022-09-02T13:15:00Z,27.3215,-90.5355,18.3,38.8,11133222
Anadarko,ioos:station:wmo:42370:2,2022-09-02T13:35:00Z,27.3215,-90.5355,18.3,38.8,11133222
Anadarko,ioos:station:wmo:42370:2,2022-09-02T13:55:00Z,27.3215,-90.5355,18.3,38.7,11133222
Anadarko,ioos:station:wmo:42370:2,2022-09-02T14:15:00Z,27.3215,-90.5355,18.3,38.8,11133222
Anadarko,ioos:station:wmo:42370:2,2022-09-02T14:35:00Z,27.3215,-90.5355,18.3,38.6,11133222
Anadarko,ioos:station:wmo:42370:2,2022-09-02T14:55:00Z,27.3215,-90.5355,18.3,38.6,11133222
Anadarko,ioos:station:wmo:42370:2,2022-09-02T15:15:00Z,27.3215,-90.5355,18.3,38.6,11133222
Anadarko,ioos:station:wmo:42370:2,2022-09-02T15:35:00Z,27.3215,-90.5355,18.3,38.7,11133222
Anadarko,ioos:station:wmo:42370:2,2022-09-02T15:55:00Z,27.3215,-90.5355,18.3,38.6,11133222
Anadarko,ioos:station:wmo:42370:2,2022-09-02T16:15:00Z,27.3215,-90.5355,18.3,38.7,11133222
Anadarko,ioos:station:wmo:42370:2,2022-09-02T16:35:00Z,27.3215,-90.5355,18.3,38.7,11133222
Anadarko,ioos:station:wmo:42370:2,2022-09-02T16:55:00Z,27.3215,-90.5355,18.3,38.6,11133222
Anadarko,ioos:station:wmo:42370:2,2022-09-02T17:15:00Z,27.3215,-90.5355,18.3,38.6,11133222
Anadarko,ioos:station:wmo:42370:2,2022-09-02T17:35:00Z,27.3215,-90.5355,18.3,38.5,11133222
Anadarko,ioos:station:wmo:42370:2,2022-09-02T17:55:00Z,27.3215,-90.5355,18.3,38.7,11133222
Anadarko,ioos:station:wmo:42370:2,2022-09-02T18:15:00Z,27.3215,-90.5355,18.3,38.6,11133222
Anadarko,ioos:station:wmo:42370:2,2022-09-04T18:01:00Z,27.3215,-90.5355,18.3,30.1,11111222
Anadarko,ioos:station:wmo:42370:2,2022-09-04T18:21:00Z,27.3215,-90.5355,18.3,30.1,11111222
Anadarko,ioos:station:wmo:42370:2,2022-09-04T18:41:00Z,27.3215,-90.5355,18.3,30.1,11111222
Anadarko,ioos:station:wmo:42370:2,2022-09-04T19:01:00Z,27.3215,-90.5355,18.3,30.1,11111222
Anadarko,ioos:station:wmo:42370:2,2022-09-04T19:21:00Z,27.3215,-90.5355,18.3,30.1,11111222
Anadarko,ioos:station:wmo:42370:2,2022-09-04T19:41:00Z,27.3215,-90.5355,18.3,30.1,11111222
Anadarko,ioos:station:wmo:42370:2,2022-09-04T20:46:00Z,27.3215,-90.5355,18.3,30.2,11111222
Anadarko,ioos:station:wmo:42370:2,2022-09-04T21:06:00Z,27.3215,-90.5355,18.3,30.2,11111222
Anadarko,ioos:station:wmo:42370:2,2022-09-04T21:26:00Z,27.3215,-90.5355,18.3,30.2,11111222
Anadarko,ioos:station:wmo:42370:2,2022-09-04T21:46:00Z,27.3215,-90.5355,18.3,30.3,11111222
Anadarko,ioos:station:wmo:42370:2,2022-09-04T22:06:00Z,27.3215,-90.5355,18.3,30.3,11111222
Anadarko,ioos:station:wmo:42370:2,2022-09-04T22:26:00Z,27.3215,-90.5355,18.3,30.3,11111222
Anadarko,ioos:station:wmo:42370:2,2022-09-04T22:46:00Z,27.3215,-90.5355,18.3,30.3,11111222
Anadarko,ioos:station:wmo:42370:2,2022-09-04T23:06:00Z,27.3215,-90.5355,18.3,30.3,11111222
Anadarko,ioos:station:wmo:42370:2,2022-09-04T23:26:00Z,27.3215,-90.5355,18.3,30.3,11111222
Anadarko,ioos:station:wmo:42370:2,2022-09-04T23:46:00Z,27.3215,-90.5355,18.3,30.4,11111222
Anadarko,ioos:station:wmo:42370:2,2022-09-05T00:06:00Z,27.3215,-90.5355,18.3,30.3,11111222
Anadarko,ioos:station:wmo:42370:2,2022-09-05T00:26:00Z,27.3215,-90.5355,18.3,30.4,11111222
Anadarko,ioos:station:wmo:42370:2,2022-09-05T00:46:00Z,27.3215,-90.5355,18.3,30.4,11111222
Anadarko,ioos:station:wmo:42370:2,2022-09-05T01:06:00Z,27.3215,-90.5355,18.3,30.4,11111222
Anadarko,ioos:station:wmo:42370:2,2022-09-05T01:26:00Z,27.3215,-90.5355,18.3,30.4,11111222
Anadarko,ioos:station:wmo:42370:2,2022-09-05T01:46:00Z,27.3215,-90.5355,18.3,30.3,11111222
Anadarko,ioos:station:wmo:42370:2,2022-09-05T02:06:00Z,27.3215,-90.5355,18.3,30.4,11111222
Anadarko,ioos:station:wmo:42370:2,2022-09-05T02:26:00Z,27.3215,-90.5355,18.3,30.4,11111222
Anadarko,ioos:station:wmo:42370:2,2022-09-05T02:46:00Z,27.3215,-90.5355,18.3,30.3,11111222
Anadarko,ioos:station:wmo:42370:2,2022-09-05T03:06:00Z,27.3215,-90.5355,18.3,30.4,11111222
Anadarko,ioos:station:wmo:42370:2,2022-09-05T03:26:00Z,27.3215,-90.5355,18.3,30.4,11111222
Anadarko,ioos:station:wmo:42370:2,2022-09-05T03:46:00Z,27.3215,-90.5355,18.3,30.4,11111222
Anadarko,ioos:station:wmo:42370:2,2022-09-05T04:06:00Z,27.3215,-90.5355,18.3,30.4,11111222
Anadarko,ioos:station:wmo:42370:2,2022-09-05T04:26:00Z,27.3215,-90.5355,18.3,30.4,11111222
Anadarko,ioos:station:wmo:42370:2,2022-09-05T04:46:00Z,27.3215,-90.5355,18.3,30.4,11111222
Anadarko,ioos:station:wmo:42370:2,2022-09-05T05:06:00Z,27.3215,-90.5355,18.3,30.4,11111222
Anadarko,ioos:station:wmo:42370:2,2022-09-05T05:26:00Z,27.3215,-90.5355,18.3,30.4,11111222
Anadarko,ioos:station:wmo:42370:2,2022-09-05T05:46:00Z,27.3215,-90.5355,18.3,30.4,11111222
Anadarko,ioos:station:wmo:42370:2,2022-09-05T06:06:00Z,27.3215,-90.5355,18.3,30.4,11111222
Anadarko,ioos:station:wmo:42370:2,2022-09-05T06:26:00Z,27.3215,-90.5355,18.3,30.4,11111222
Anadarko,ioos:station:wmo:42370:2,2022-09-05T06:46:00Z,27.3215,-90.5355,18.3,30.4,11111222
Anadarko,ioos:station:wmo:42370:2,2022-09-05T07:06:00Z,27.3215,-90.5355,18.3,30.4,11111222
Anadarko,ioos:station:wmo:42370:2,2022-09-05T07:26:00Z,27.3215,-90.5355,18.3,30.4,11111222
Anadarko,ioos:station:wmo:42370:2,2022-09-05T07:46:00Z,27.3215,-90.5355,18.3,30.4,11111222
Anadarko,ioos:station:wmo:42370:2,2022-09-05T08:06:00Z,27.3215,-90.5355,18.3,30.4,11111222
Anadarko,ioos:station:wmo:42370:2,2022-09-05T08:26:00Z,27.3215,-90.5355,18.3,30.4,11111222
Anadarko,ioos:station:wmo:42370:2,2022-09-05T08:46:00Z,27.3215,-90.5355,18.3,30.4,11111222
Anadarko,ioos:station:wmo:42370:2,2022-09-05T09:06:00Z,27.3215,-90.5355,18.3,30.4,11111222
Anadarko,ioos:station:wmo:42370:2,2022-09-05T09:26:00Z,27.3215,-90.5355,18.3,30.4,11111222
Anadarko,ioos:station:wmo:42370:2,2022-09-05T09:46:00Z,27.3215,-90.5355,18.3,30.4,11111222
Anadarko,ioos:station:wmo:42370:2,2022-09-05T10:06:00Z,27.3215,-90.5355,18.3,30.4,11111222
Anadarko,ioos:station:wmo:42370:2,2022-09-05T10:26:00Z,27.3215,-90.5355,18.3,30.4,11111222
Anadarko,ioos:station:wmo:42370:2,2022-09-05T10:46:00Z,27.3215,-90.5355,18.3,30.4,11111222
Anadarko,ioos:station:wmo:42370:2,2022-09-05T11:06:00Z,27.3215,-90.5355,18.3,30.4,11111222
Anadarko,ioos:station:wmo:42370:2,2022-09-05T11:26:00Z,27.3215,-90.5355,18.3,30.4,11111222
Anadarko,ioos:station:wmo:42370:2,2022-09-05T11:46:00Z,27.3215,-90.5355,18.3,30.4,11111222
Anadarko,ioos:station:wmo:42370:2,2022-09-05T12:06:00Z,27.3215,-90.5355,18.3,30.4,11111222
Anadarko,ioos:station:wmo:42370:2,2022-09-05T12:26:00Z,27.3215,-90.5355,18.3,30.4,11111222
Anadarko,ioos:station:wmo:42370:2,2022-09-05T12:46:00Z,27.3215,-90.5355,18.3,30.4,11111222
Anadarko,ioos:station:wmo:42370:2,2022-09-05T13:06:00Z,27.3215,-90.5355,18.3,30.4,11111222
Anadarko,ioos:station:wmo:42370:2,2022-09-05T13:26:00Z,27.3215,-90.5355,18.3,30.4,11111222
Anadarko,ioos:station:wmo:42370:2,2022-09-05T13:46:00Z,27.3215,-90.5355,18.3,30.3,11111222
Anadarko,ioos:station:wmo:42370:2,2022-09-05T14:06:00Z,27.3215,-90.5355,18.3,30.3,11111222
Anadarko,ioos:station:wmo:42370:2,2022-09-05T14:26:00Z,27.3215,-90.5355,18.3,30.3,11111222
Anadarko,ioos:station:wmo:42370:2,2022-09-05T14:46:00Z,27.3215,-90.5355,18.3,30.3,11111222
Anadarko,ioos:station:wmo:42370:2,2022-09-05T15:06:00Z,27.3215,-90.5355,18.3,30.3,11111222
Anadarko,ioos:station:wmo:42370:2,2022-09-05T15:26:00Z,27.3215,-90.5355,18.3,30.3,11111222
Anadarko,ioos:station:wmo:42370:2,2022-09-05T15:46:00Z,27.3215,-90.5355,18.3,30.3,11111222
Anadarko,ioos:station:wmo:42370:2,2022-09-05T16:06:00Z,27.3215,-90.5355,18.3,30.3,11111222
Anadarko,ioos:station:wmo:42370:2,2022-09-05T16:26:00Z,27.3215,-90.5355,18.3,30.3,11111222
Anadarko,ioos:station:wmo:42370:2,2022-09-05T16:46:00Z,27.3215,-90.5355,18.3,30.4,11111222
Anadarko,ioos:station:wmo:42370:2,2022-09-05T17:06:00Z,27.3215,-90.5355,18.3,30.4,11111222
Anadarko,ioos:station:wmo:42370:2,2022-09-05T17:26:00Z,27.3215,-90.5355,18.3,30.4,11111222
Anadarko,ioos:station:wmo:42370:2,2022-09-05T17:46:00Z,27.3215,-90.5355,18.3,30.4,11111222
Anadarko,ioos:station:wmo:42370:2,2022-09-05T18:06:00Z,27.3215,-90.5355,18.3,30.4,11111222
Anadarko,ioos:station:wmo:42370:2,2022-09-05T18:26:00Z,27.3215,-90.5355,18.3,30.4,11111222
Anadarko,ioos:station:wmo:42370:2,2022-09-05T18:46:00Z,27.3215,-90.5355,18.3,30.4,11111222
Anadarko,ioos:station:wmo:42370:2,2022-09-05T19:06:00Z,27.3215,-90.5355,18.3,30.4,11111222
Anadarko,ioos:station:wmo:42370:2,2022-09-05T19:26:00Z,27.3215,-90.5355,18.3,30.4,11111222
Anadarko,ioos:station:wmo:42370:2,2022-09-05T19:46:00Z,27.3215,-90.5355,18.3,30.4,11111222
Anadarko,ioos:station:wmo:42370:2,2022-09-05T20:06:00Z,27.3215,-90.5355,18.3,30.4,11111222
Anadarko,ioos:station:wmo:42370:2,2022-09-05T20:26:00Z,27.3215,-90.5355,18.3,30.4,11111222
Anadarko,ioos:station:wmo:42370:2,2022-09-05T20:46:00Z,27.3215,-90.5355,18.3,30.4,11111222
Anadarko,ioos:station:wmo:42370:2,2022-09-05T21:06:00Z,27.3215,-90.5355,18.3,30.4,11111222
Anadarko,ioos:station:wmo:42370:2,2022-09-05T21:26:00Z,27.3215,-90.5355,18.3,30.4,11111222
Anadarko,ioos:station:wmo:42370:2,2022-09-05T21:46:00Z,27.3215,-90.5355,18.3,30.4,11111222
Anadarko,ioos:station:wmo:42370:2,2022-09-05T22:06:00Z,27.3215,-90.5355,18.3,30.4,11111222
Anadarko,ioos:station:wmo:42370:2,2022-09-05T22:26:00Z,27.3215,-90.5355,18.3,30.4,11111222
Anadarko,ioos:station:wmo:42370:2,2022-09-05T22:46:00Z,27.3215,-90.5355,18.3,30.4,11111222
Anadarko,ioos:station:wmo:42370:2,2022-09-05T23:06:00Z,27.3215,-90.5355,18.3,30.4,11111222
Anadarko,ioos:station:wmo:42370:2,2022-09-05T23:26:00Z,27.3215,-90.5355,18.3,30.4,11111222
Anadarko,ioos:station:wmo:42370:2,2022-09-05T23:46:00Z,27.3215,-90.5355,18.3,30.4,11111222
Anadarko,ioos:station:wmo:42370:2,2022-09-06T00:06:00Z,27.3215,-90.5355,18.3,30.4,11111222
Anadarko,ioos:station:wmo:42370:2,2022-09-06T00:26:00Z,27.3215,-90.5355,18.3,30.4,11111222
Anadarko,ioos:station:wmo:42370:2,2022-09-06T00:46:00Z,27.3215,-90.5355,18.3,30.3,11111222
Anadarko,ioos:station:wmo:42370:2,2022-09-06T01:06:00Z,27.3215,-90.5355,18.3,30.2,11111222
Anadarko,ioos:station:wmo:42370:2,2022-09-06T01:26:00Z,27.3215,-90.5355,18.3,30.3,11111222
Anadarko,ioos:station:wmo:42370:2,2022-09-06T01:46:00Z,27.3215,-90.5355,18.3,30.2,11111222
Anadarko,ioos:station:wmo:42370:2,2022-09-06T02:06:00Z,27.3215,-90.5355,18.3,30.2,11111222
Anadarko,ioos:station:wmo:42370:2,2022-09-06T02:26:00Z,27.3215,-90.5355,18.3,30.2,11111222
Anadarko,ioos:station:wmo:42370:2,2022-09-06T02:46:00Z,27.3215,-90.5355,18.3,30.2,11111222
Anadarko,ioos:station:wmo:42370:2,2022-09-06T03:06:00Z,27.3215,-90.5355,18.3,30.1,11111222
Anadarko,ioos:station:wmo:42370:2,2022-09-06T03:26:00Z,27.3215,-90.5355,18.3,30.1,11111222
Anadarko,ioos:station:wmo:42370:2,2022-09-06T03:46:00Z,27.3215,-90.5355,18.3,30.0,11111222
Anadarko,ioos:station:wmo:42370:2,2022-09-06T04:06:00Z,27.3215,-90.5355,18.3,30.0,11111222
Anadarko,ioos:station:wmo:42370:2,2022-09-06T04:26:00Z,27.3215,-90.5355,18.3,30.0,11111222
Anadarko,ioos:station:wmo:42370:2,2022-09-06T04:46:00Z,27.3215,-90.5355,18.3,30.0,11111222
Anadarko,ioos:station:wmo:42370:2,2022-09-06T05:06:00Z,27.3215,-90.5355,18.3,29.9,11111222
Anadarko,ioos:station:wmo:42370:2,2022-09-06T05:26:00Z,27.3215,-90.5355,18.3,29.9,11111222
Anadarko,ioos:station:wmo:42370:2,2022-09-06T05:46:00Z,27.3215,-90.5355,18.3,30.0,11111222
Anadarko,ioos:station:wmo:42370:2,2022-09-06T06:06:00Z,27.3215,-90.5355,18.3,29.9,11111222
Anadarko,ioos:station:wmo:42370:2,2022-09-06T06:26:00Z,27.3215,-90.5355,18.3,29.9,11111222
Anadarko,ioos:station:wmo:42370:2,2022-09-06T06:46:00Z,27.3215,-90.5355,18.3,29.9,11111222
Anadarko,ioos:station:wmo:42370:2,2022-09-06T07:06:00Z,27.3215,-90.5355,18.3,29.8,11111222
Anadarko,ioos:station:wmo:42370:2,2022-09-06T07:26:00Z,27.3215,-90.5355,18.3,29.9,11111222
Anadarko,ioos:station:wmo:42370:2,2022-09-06T07:46:00Z,27.3215,-90.5355,18.3,29.9,11111222
Anadarko,ioos:station:wmo:42370:2,2022-09-06T08:06:00Z,27.3215,-90.5355,18.3,29.9,11111222
Anadarko,ioos:station:wmo:42370:2,2022-09-06T08:26:00Z,27.3215,-90.5355,18.3,29.9,11111222
Anadarko,ioos:station:wmo:42370:2,2022-09-06T08:46:00Z,27.3215,-90.5355,18.3,29.9,11111222
Anadarko,ioos:station:wmo:42370:2,2022-09-06T09:06:00Z,27.3215,-90.5355,18.3,29.8,11111222
Anadarko,ioos:station:wmo:42370:2,2022-09-06T09:26:00Z,27.3215,-90.5355,18.3,29.8,11111222
Anadarko,ioos:station:wmo:42370:2,2022-09-06T09:46:00Z,27.3215,-90.5355,18.3,29.9,11111222
Anadarko,ioos:station:wmo:42370:2,2022-09-06T10:06:00Z,27.3215,-90.5355,18.3,29.9,11111222
Anadarko,ioos:station:wmo:42370:2,2022-09-06T10:26:00Z,27.3215,-90.5355,18.3,29.9,11111222
Anadarko,ioos:station:wmo:42370:2,2022-09-06T10:46:00Z,27.3215,-90.5355,18.3,30.0,11111222
Anadarko,ioos:station:wmo:42370:2,2022-09-06T11:06:00Z,27.3215,-90.5355,18.3,30.0,11111222
Anadarko,ioos:station:wmo:42370:2,2022-09-06T11:26:00Z,27.3215,-90.5355,18.3,30.0,11111222
Anadarko,ioos:station:wmo:42370:2,2022-09-06T11:46:00Z,27.3215,-90.5355,18.3,30.1,11111222
Anadarko,ioos:station:wmo:42370:2,2022-09-06T12:06:00Z,27.3215,-90.5355,18.3,30.1,11111222
Anadarko,ioos:station:wmo:42370:2,2022-09-06T12:26:00Z,27.3215,-90.5355,18.3,30.1,11111222
Anadarko,ioos:station:wmo:42370:2,2022-09-06T12:46:00Z,27.3215,-90.5355,18.3,30.1,11111222
Anadarko,ioos:station:wmo:42370:2,2022-09-06T13:06:00Z,27.3215,-90.5355,18.3,30.1,11111222
Anadarko,ioos:station:wmo:42370:2,2022-09-06T13:26:00Z,27.3215,-90.5355,18.3,30.1,11111222
Anadarko,ioos:station:wmo:42370:2,2022-09-06T13:46:00Z,27.3215,-90.5355,18.3,30.2,11111222
Anadarko,ioos:station:wmo:42370:2,2022-09-06T14:06:00Z,27.3215,-90.5355,18.3,30.2,11111222
Anadarko,ioos:station:wmo:42370:2,2022-09-06T14:26:00Z,27.3215,-90.5355,18.3,30.1,11111222
Anadarko,ioos:station:wmo:42370:2,2022-09-06T14:46:00Z,27.3215,-90.5355,18.3,30.2,11111222
Anadarko,ioos:station:wmo:42370:2,2022-09-06T15:06:00Z,27.3215,-90.5355,18.3,30.1,11111222
Anadarko,ioos:station:wmo:42370:2,2022-09-06T15:26:00Z,27.3215,-90.5355,18.3,30.1,11111222
Anadarko,ioos:station:wmo:42370:2,2022-09-06T15:46:00Z,27.3215,-90.5355,18.3,30.1,11111222
Anadarko,ioos:station:wmo:42370:2,2022-09-06T16:06:00Z,27.3215,-90.5355,18.3,30.2,11111222
Anadarko,ioos:station:wmo:42370:2,2022-09-06T16:26:00Z,27.3215,-90.5355,18.3,30.2,11111222
Anadarko,ioos:station:wmo:42370:2,2022-09-06T16:46:00Z,27.3215,-90.5355,18.3,30.1,11111222
Anadarko,ioos:station:wmo:42370:2,2022-09-06T17:06:00Z,27.3215,-90.5355,18.3,30.1,11111222
Anadarko,ioos:station:wmo:42370:2,2022-09-06T17:26:00Z,27.3215,-90.5355,18.3,30.1,11111222
Anadarko,ioos:station:wmo:42370:2,2022-09-06T17:46:00Z,27.3215,-90.5355,18.3,30.1,11111222
Anadarko,ioos:station:wmo:42370:2,2022-09-06T18:06:00Z,27.3215,-90.5355,18.3,30.1,11111222
Anadarko,ioos:station:wmo:42370:2,2022-09-06T18:26:00Z,27.3215,-90.5355,18.3,30.2,11111222
Anadarko,ioos:station:wmo:42370:2,2022-09-06T18:46:00Z,27.3215,-90.5355,18.3,30.2,11111222
Anadarko,ioos:station:wmo:42370:2,2022-09-06T19:06:00Z,27.3215,-90.5355,18.3,30.2,11111222
Anadarko,ioos:station:wmo:42370:2,2022-09-06T19:26:00Z,27.3215,-90.5355,18.3,30.3,11111222
Anadarko,ioos:station:wmo:42370:2,2022-09-06T19:46:00Z,27.3215,-90.5355,18.3,30.3,11111222
Anadarko,ioos:station:wmo:42370:2,2022-09-06T20:06:00Z,27.3215,-90.5355,18.3,30.3,11111222
Anadarko,ioos:station:wmo:42370:2,2022-09-06T20:26:00Z,27.3215,-90.5355,18.3,30.2,11111222
Anadarko,ioos:station:wmo:42370:2,2022-09-06T20:46:00Z,27.3215,-90.5355,18.3,30.2,11111222
Anadarko,ioos:station:wmo:42370:2,2022-09-06T21:06:00Z,27.3215,-90.5355,18.3,30.2,11111222
Anadarko,ioos:station:wmo:42370:2,2022-09-06T21:26:00Z,27.3215,-90.5355,18.3,30.3,11111222